Theta_e
318 319 319 319 318 318 318 318 318 317 316 316 316 316 314 313 314 316 322 326 330 333 332 332 344 350 351 354 356 347 347 352 353 357 352 352 355 347 347 355 352 352 352 346 341
319 319 319 319 319 319 318 318 318 317 316 316 316 316 314 313 315 324 330 325 332 330 327 332 331 332 337 348 344 346 348 351 352 351 350 349 352 354 355 355 355 354 349 346 344
318 319 319 319 319 319 319 318 318 318 316 316 317 316 313 313 328 326 330 328 328 329 325 327 330 333 337 338 345 346 349 349 351 349 349 351 351 353 356 357 355 356 353 350 350
318 318 318 319 319 319 319 318 318 318 316 317 317 316 312 321 324 329 330 331 328 327 328 329 331 334 337 342 346 350 349 348 351 351 350 353 351 355 354 354 353 353 352 349 351
317 318 318 319 319 319 319 319 319 318 316 317 316 314 315 323 323 325 325 330 328 327 329 329 330 332 339 344 345 347 347 344 346 345 344 346 351 354 356 352 352 352 352 352 352
314 316 318 318 318 319 319 319 319 318 316 317 316 313 325 324 322 327 327 327 328 331 333 329 331 331 335 343 345 345 345 347 348 347 347 350 352 354 354 351 352 352 352 351 351
311 315 316 317 318 318 319 319 319 317 316 317 315 315 322 314 323 325 326 328 330 334 332 333 332 333 337 345 344 344 344 345 351 350 347 345 353 355 351 350 353 352 351 351 350
307 310 314 316 317 318 319 319 318 316 317 318 314 317 317 319 323 323 323 323 327 328 328 329 331 333 342 342 345 347 347 346 348 349 349 347 354 352 350 350 350 350 350 351 350
305 307 310 313 316 317 318 319 318 319 320 317 318 320 324 324 322 323 323 321 322 324 327 329 330 331 333 340 340 342 349 350 351 349 351 347 352 351 349 350 350 348 346 346 346
304 306 308 310 313 316 319 318 324 324 322 322 323 319 318 320 322 323 324 322 320 321 326 328 326 330 328 331 340 345 350 350 354 348 355 359 359 355 349 350 350 348 347 346 347
304 305 306 308 312 314 318 322 316 319 321 325 317 319 318 322 324 321 323 320 319 324 325 325 328 329 330 331 333 341 344 350 349 348 355 354 352 348 351 350 350 349 347 347 346
304 305 306 309 313 316 320 321 322 321 319 319 322 323 324 325 323 320 323 320 320 321 325 325 327 329 331 332 334 340 342 346 346 349 352 356 353 343 343 348 351 351 349 348 345
304 306 308 310 316 321 318 323 323 322 319 319 319 320 321 322 323 319 319 319 320 321 324 324 325 329 331 332 334 341 344 344 344 346 349 351 353 350 345 345 343 350 349 348 347
305 308 310 311 318 316 321 324 323 323 318 320 320 319 321 322 321 319 319 319 318 318 319 323 325 327 327 330 332 333 341 342 345 343 355 348 351 348 346 346 344 349 350 350 347
307 311 312 313 314 318 323 323 323 320 321 325 319 321 318 320 320 320 323 318 317 318 318 320 326 326 326 327 330 332 334 341 345 345 339 353 347 348 346 345 355 351 351 347 346
311 313 314 315 315 320 321 324 322 320 320 324 321 320 319 318 319 319 320 319 318 316 318 319 322 325 325 327 328 330 332 332 332 332 335 333 341 343 348 347 353 348 347 345 347
315 315 314 314 316 318 322 318 321 324 323 322 322 320 318 318 319 319 319 318 316 317 315 316 318 320 322 322 321 325 326 330 334 334 334 334 342 338 343 349 346 343 342 344 345
318 317 318 317 316 319 321 319 328 327 325 322 320 319 319 319 318 318 318 316 314 316 313 315 317 319 321 322 322 321 323 328 335 335 334 343 344 343 346 344 344 344 344 346 342
320 318 322 323 319 316 316 322 323 324 322 322 320 319 318 320 321 318 315 314 315 314 316 315 316 318 320 322 322 321 325 324 325 325 329 343 345 339 343 345 346 346 343 348 345
321 320 321 325 322 321 317 321 320 321 323 323 321 320 320 319 320 320 317 316 316 316 314 315 316 319 319 322 320 321 322 324 319 327 329 330 346 343 345 347 348 345 346 341 345
322 323 326 325 323 318 324 322 323 324 325 322 322 321 320 320 320 320 322 318 317 318 313 313 314 318 317 318 318 318 322 320 318 321 323 326 326 337 342 343 345 339 340 343 350
317 328 325 325 321 319 323 325 324 326 325 322 321 321 321 320 319 320 323 323 323 322 318 316 312 315 318 317 319 320 320 320 320 321 320 319 322 340 340 342 342 338 341 343 350
316 322 325 325 323 323 322 324 325 325 323 324 324 322 320 323 324 323 324 325 327 329 322 318 313 316 316 316 317 322 321 318 316 315 319 320 321 343 340 340 340 342 352 351 352
319 326 318 317 317 324 323 325 326 325 327 323 323 320 321 324 323 324 330 327 329 334 343 324 312 314 317 316 319 322 320 321 319 317 319 320 328 350 344 341 341 348 356 356 357
313 318 316 320 320 319 323 326 330 330 328 327 328 332 333 332 331 333 331 329 328 336 328 317 319 318 316 316 320 321 322 320 322 319 322 322 340 348 344 341 340 354 359 359 357
310 311 310 314 317 320 320 321 328 327 331 332 333 333 331 335 333 333 330 328 326 325 326 324 322 319 321 319 319 321 321 321 320 322 320 323 339 343 343 338 343 355 359 359 358
316 315 311 315 316 315 315 317 319 319 323 321 330 333 331 331 329 327 324 324 326 323 325 328 328 328 322 320 321 320 322 323 322 321 323 323 321 336 339 340 342 350 358 358 357
Wind_Speed
21 21 21 20 20 21 21 21 23 24 23 22 21 21 22 23 21 14 6 7 3 5 7 5 8 12 13 4 6 4 3 6 4 5 4 6 6 3 5 15 4 5 6 16 31
23 22 22 21 21 22 22 22 23 24 24 21 21 20 20 24 18 12 25 14 12 12 8 5 7 5 3 5 3 4 4 4 5 7 6 5 11 12 9 13 10 15 17 25 24
23 22 22 22 22 23 23 24 23 24 24 21 20 20 21 17 4 9 19 16 19 13 8 5 5 2 4 3 5 3 6 8 7 7 12 9 4 8 19 8 20 22 20 21 24
23 22 22 22 23 23 24 25 24 24 24 22 19 19 18 4 5 4 9 9 12 9 8 1 2 4 2 3 3 9 5 6 5 5 5 8 6 16 13 11 19 22 23 18 16
23 22 22 22 23 24 25 25 24 24 23 21 18 17 5 3 9 8 11 5 7 7 6 3 6 6 6 2 5 4 4 6 9 11 7 10 7 6 11 20 18 18 20 20 18
23 23 22 23 24 25 26 26 25 24 20 20 16 13 3 3 6 7 7 6 7 6 4 5 5 5 6 6 5 5 15 10 10 9 7 10 12 7 15 20 18 19 20 19 18
23 23 23 24 25 26 27 26 25 23 19 17 13 6 1 13 4 2 9 8 9 12 4 12 12 5 2 2 3 4 7 8 7 3 5 3 6 8 15 20 21 18 18 18 18
24 23 24 24 25 27 28 28 26 22 17 12 9 1 7 9 10 18 14 17 13 16 16 23 24 4 5 4 4 4 4 4 4 2 5 6 2 12 18 17 14 16 17 17 19
24 24 24 24 25 28 29 29 25 18 10 6 3 2 10 14 8 15 17 11 12 15 16 19 4 4 4 4 5 4 2 3 5 5 3 5 6 8 18 17 14 10 9 11 12
24 24 24 25 25 27 30 28 10 3 1 1 2 3 7 5 7 9 17 17 4 5 6 3 4 2 4 4 4 5 2 3 4 3 3 3 8 5 10 16 15 13 9 8 10
25 25 25 25 24 25 28 8 5 4 2 6 5 5 7 9 11 9 15 4 1 2 1 5 0 7 12 7 7 7 6 5 7 9 6 11 7 6 4 7 12 11 9 11 9
26 26 26 25 22 21 9 2 5 6 8 9 15 14 30 9 6 10 8 5 5 6 1 5 6 12 6 8 5 8 2 7 4 12 6 8 11 5 6 7 14 16 12 13 9
27 27 26 24 20 4 14 8 18 16 2 8 8 8 8 9 8 11 5 3 4 2 5 8 8 4 7 13 7 6 5 7 9 11 7 11 6 6 6 12 10 4 6 10 13
28 26 25 25 4 14 8 24 22 21 4 8 4 8 5 8 6 10 8 7 2 9 6 7 8 11 14 12 4 7 18 9 13 6 7 11 5 6 9 10 9 9 2 8 8
27 25 20 15 13 5 12 21 22 4 3 2 4 3 5 10 2 6 15 5 9 8 8 10 5 9 7 13 3 14 4 15 17 18 4 13 2 7 2 5 11 11 7 9 10
27 21 18 6 9 7 18 21 6 5 3 4 2 6 5 3 4 5 4 4 4 7 3 10 4 4 9 16 8 12 5 4 4 5 2 6 5 5 6 10 6 7 11 11 11
24 17 14 8 4 12 15 5 5 3 6 8 4 3 5 4 4 5 6 4 6 3 6 7 10 6 4 8 7 5 6 3 4 4 6 3 4 8 9 6 13 16 15 16 16
18 10 8 13 4 5 7 5 1 5 5 6 5 5 7 1 6 6 3 5 4 4 3 7 10 4 5 8 9 6 8 6 6 4 6 2 5 6 4 5 6 10 10 10 11
14 5 6 2 6 5 5 4 5 3 5 9 11 8 9 6 2 4 9 8 8 10 9 6 7 8 5 5 7 11 3 8 7 1 4 2 5 10 3 5 9 9 15 16 13
9 6 5 5 12 6 5 3 5 4 8 11 4 3 5 8 8 6 4 7 7 11 8 9 8 15 14 2 5 7 4 1 3 3 3 4 5 5 5 12 9 8 11 8 9
5 4 4 13 10 5 2 6 7 10 3 5 3 2 3 3 3 5 4 10 2 9 8 8 7 13 4 6 9 6 3 4 6 5 6 3 6 8 15 18 11 10 10 9 12
4 3 11 16 3 0 2 5 6 12 10 4 5 4 3 6 5 3 5 6 9 4 8 14 7 7 16 10 5 6 10 8 6 8 3 6 7 5 20 17 9 9 3 8 16
2 3 4 4 1 3 6 7 6 4 7 3 2 1 2 4 6 5 7 12 9 11 5 2 1 5 11 7 5 4 5 6 5 4 6 6 6 1 4 6 4 5 9 13 18
2 4 4 4 1 2 6 7 10 8 6 7 4 7 8 8 3 5 14 8 14 7 11 8 4 6 8 9 4 4 8 5 5 5 5 7 4 4 5 12 6 6 14 17 18
4 1 0 3 4 7 3 4 6 8 7 11 8 5 3 5 9 8 7 10 18 7 9 4 3 5 7 8 5 3 5 9 4 7 6 10 10 10 15 18 10 9 16 18 18
3 3 5 3 5 7 7 7 11 14 6 7 4 9 5 3 5 6 3 4 6 11 8 6 4 7 5 8 4 3 5 7 5 5 5 4 7 9 19 10 10 16 21 22 23
8 6 4 5 5 4 4 8 10 9 5 8 6 5 9 6 7 8 7 8 11 6 5 4 6 8 6 5 7 5 3 4 5 5 4 4 10 7 6 15 17 18 24 21 20
Wind_Direction
359 358 356 355 354 351 349 347 346 345 343 340 339 338 337 330 322 302 258 238 296 284 292 303 228 217 206 234 200 144 100 85 146 111 146 128 116 161 118 133 142 188 123 146 164
356 354 351 350 349 347 345 344 343 341 342 339 338 337 337 331 326 280 259 254 260 277 302 355 324 1 162 237 203 148 116 120 146 147 134 123 138 137 119 137 98 99 109 144 159
351 349 348 346 345 343 341 340 339 338 337 337 337 335 335 331 327 253 271 255 247 271 280 312 297 267 301 45 356 239 101 115 150 136 143 143 166 124 131 135 149 148 154 157 164
348 346 344 342 341 338 336 335 335 334 335 334 337 334 333 346 220 284 308 267 239 254 285 21 3 340 72 283 294 95 79 117 152 123 126 141 119 143 152 167 158 153 156 159 171
345 343 340 338 336 333 331 330 329 330 331 330 336 337 346 2 254 266 293 246 226 247 254 54 357 351 54 49 320 41 79 38 87 96 89 100 86 127 130 144 150 154 155 169 178
343 341 338 334 333 330 327 326 325 324 323 325 331 338 16 280 259 256 249 238 237 239 284 140 219 210 287 187 135 208 70 71 68 29 104 115 126 102 140 148 154 164 171 175 184
340 337 334 331 330 327 323 321 319 318 317 318 323 348 293 237 231 286 276 237 257 243 250 265 260 65 267 34 5 337 86 78 35 67 50 10 53 119 144 154 163 176 181 185 194
339 334 330 328 328 325 321 319 316 311 309 305 311 339 249 267 288 280 249 276 255 262 257 276 280 182 110 124 61 285 43 100 185 121 43 78 155 144 159 157 163 179 191 196 199
337 333 330 328 326 323 320 320 313 305 297 286 324 87 271 303 265 240 239 248 280 284 283 277 329 152 65 79 6 21 337 43 57 48 117 86 234 217 170 158 170 185 198 205 191
339 334 329 328 327 325 322 325 332 331 82 6 272 355 274 269 254 239 238 239 249 332 347 2 32 3 110 100 214 241 205 160 158 227 119 137 276 280 172 163 180 187 191 213 179
340 335 331 327 327 328 329 348 10 1 72 210 213 264 276 319 307 258 234 179 99 37 225 299 162 242 256 184 198 198 188 179 132 206 143 196 190 302 343 203 188 196 181 192 186
340 335 331 327 324 325 331 7 239 281 299 243 253 246 264 276 312 312 141 142 149 226 123 345 233 245 258 252 220 217 236 191 288 157 148 179 237 257 263 256 212 193 192 187 147
339 337 332 327 323 338 322 286 336 334 298 283 217 225 224 145 221 256 140 144 181 200 220 199 241 304 246 270 249 250 218 167 212 162 211 118 306 292 283 224 252 205 187 200 162
340 337 333 330 344 332 298 337 348 347 33 278 233 259 190 163 290 223 171 154 193 207 215 232 252 252 269 266 181 198 226 233 210 164 197 206 225 228 217 243 246 239 70 214 183
339 335 328 330 311 310 326 338 340 26 6 267 232 174 145 155 192 239 217 106 215 226 119 238 234 260 266 257 223 252 232 223 207 206 148 204 164 274 183 222 214 202 214 174 183
335 329 318 310 300 306 335 332 347 45 272 293 163 185 100 248 253 294 62 85 182 221 236 236 244 221 240 265 246 268 290 27 67 138 57 198 145 259 209 205 167 193 185 189 168
333 319 296 258 240 340 342 19 48 130 306 353 301 259 188 213 238 225 260 288 204 158 265 304 273 275 231 293 308 87 61 333 341 353 225 191 115 229 219 198 162 191 194 182 165
341 316 285 261 250 319 1 55 103 256 252 271 299 176 187 141 275 232 250 266 248 124 141 195 282 237 244 190 227 265 159 156 203 214 253 135 243 260 260 143 183 233 214 172 159
345 325 305 340 175 198 68 63 219 257 329 342 339 42 3 355 285 311 207 220 230 174 199 177 263 278 269 254 127 281 230 188 115 67 79 225 292 309 61 296 248 214 194 175 176
353 342 276 149 150 113 74 243 266 265 318 317 26 92 356 324 20 31 265 229 225 196 181 225 249 263 273 273 291 165 209 274 10 170 280 294 294 237 208 238 240 227 238 161 161
8 27 182 171 153 50 132 239 278 271 282 269 330 352 308 320 5 334 284 289 352 256 152 171 170 262 31 175 236 324 308 64 122 140 167 194 254 221 201 216 218 219 203 206 159
10 39 162 164 45 199 215 215 261 290 312 321 22 9 6 312 302 313 278 222 324 266 245 207 170 218 246 233 225 207 230 190 149 259 228 158 261 222 208 209 185 243 261 171 164
59 268 172 166 353 315 299 295 239 291 285 280 325 341 83 343 348 324 328 313 349 348 325 197 201 234 292 323 357 225 237 200 127 89 198 153 253 298 162 245 209 192 154 146 151
65 29 336 27 209 330 327 304 319 335 352 359 352 44 21 353 343 324 349 321 339 15 349 4 117 156 216 214 187 301 320 281 150 138 204 218 211 225 216 239 158 171 153 154 157
29 339 225 310 322 328 272 275 323 355 9 18 7 55 101 14 347 1 339 326 330 6 7 59 264 190 216 205 203 175 293 313 214 221 169 239 192 200 201 214 176 175 159 161 161
66 33 349 289 303 324 17 335 0 355 45 346 29 344 63 123 169 279 6 322 275 323 10 355 309 336 299 308 53 336 313 300 265 262 250 176 230 209 210 123 166 172 170 176 174
358 341 110 274 337 27 342 338 357 359 323 345 330 318 313 252 196 218 207 232 242 271 330 30 11 341 279 310 6 336 223 256 271 265 225 286 234 155 159 185 187 182 181 175 170